Tracking 19909 objects as of 22-Oct-2019
HD Live streaming from Space Station
objects crossing your sky now

THORAD DELTA 1 DEB

Track THORAD DELTA 1 DEB now!
10-day predictions


NORAD ID: 8180
Int'l Code: 1974-089AW
Perigee: 1,429.1 km
Apogee: 1,599.7 km
Inclination: 100.9 °
Period: 116.1 minutes
Semi major axis: 7885 km
RCS: 0.1407 m2 (medium)
Launch date: November 15, 1974
Source: United States (US)
Launch site: AIR FORCE WESTERN TEST RANGE (AFWTR)

Note: This is SATELLITE DEBRIS
aabbcc
Your satellite tracking list
Your tracking list is empty




NASA's NSSDC Master Catalog

Two Line Element Set (TLE):
1  8180U 74089AW  19294.33905730 -.00000191  00000-0 -11262-2 0  9997
2  8180 100.8747 235.8224 0108195 190.4053 322.6638 12.39840932 32116
Source of the keplerian elements: AFSPC